Monroe, WI

1:43 PM CDT on August 24, 2016 (GMT -0500)
Monroe Municipal

Weather History for KEFT - February, 2012

Change the Weather History Date:

Saturday, February 25, 2012

  Actual Average Record
Temperature  
Mean Temperature 20 °F -  
Max Temperature 26 °F 0 °F 53 °F (1998)
Min Temperature 14 °F - -5 °F (2003)
Degree Days  
Heating Degree Days 45    
Moisture  
Dew Point 11 °F    
Average Humidity 70    
Maximum Humidity 93    
Minimum Humidity 55    
Precipitation  
Precipitation 0.00 in - - ()
Sea Level Pressure  
Sea Level Pressure 30.14 in    
Wind  
Wind Speed 12 mph (WSW)    
Max Wind Speed 16 mph    
Max Gust Speed 21 mph    
Visibility 10 miles    
Events      
Averages and records for this station are not official NWS values.
T = Trace of Precipitation, MM = Missing Value Source: NWS Daily Summary

Daily Weather History Graph

Daily Weather History Graph

Search for Another Location

Airport or City:

Trip Planner

Search our weather history database for the weather conditions in past years. The results will help you decide how hot, cold, wet, or windy it might be!

Date:

Astronomy

Feb. 25, 2012 Rise Set
Actual Time 6:41 AM CST 5:42 PM CST
Civil Twilight 6:12 AM CST 6:10 PM CST
Nautical Twilight 5:40 AM CST 6:43 PM CST
Astronomical Twilight 5:07 AM CST 7:16 PM CST
Moon 7:58 AM CST (2/25) 9:50 PM CST (2/25)
Length of Visible Light 11h 58m
Length of Day
11h 01m
Waxing Crescent, 14% of the Moon is Illuminated
Feb 25
Waxing Crescent
Feb 29
First Quarter
Mar 8
Full
Mar 14
Last Quarter
Mar 22
New

Hourly Weather History & Observations

Time (CST) Temp. Windchill Dew Point Humidity Pressure Visibility Wind Dir Wind Speed Gust Speed Precip Events Conditions
12:15 AM 21.2 °F 7.8 °F 12.2 °F 68% 29.93 in 10.0 mi West 15.0 mph - N/A   Mostly Cloudy
12:35 AM 21.2 °F 8.3 °F 12.2 °F 68% 29.93 in 10.0 mi West 13.8 mph - N/A   Scattered Clouds
12:55 AM 19.4 °F 6.0 °F 10.4 °F 68% 29.94 in 10.0 mi West 13.8 mph - N/A   Clear
1:15 AM 19.4 °F 6.0 °F 10.4 °F 68% 29.94 in 10.0 mi West 13.8 mph - N/A   Clear
1:35 AM 17.6 °F 3.2 °F 10.4 °F 73% 29.95 in 10.0 mi West 15.0 mph - N/A   Scattered Clouds
1:55 AM 17.6 °F 2.7 °F 10.4 °F 73% 29.95 in 10.0 mi West 16.1 mph - N/A   Scattered Clouds
2:15 AM 17.6 °F 2.7 °F 12.2 °F 79% 29.95 in 10.0 mi West 16.1 mph - N/A   Scattered Clouds
3:15 AM 17.6 °F 3.2 °F 10.4 °F 73% 29.97 in 10.0 mi West 15.0 mph - N/A   Scattered Clouds
3:35 AM 17.6 °F 3.2 °F 10.4 °F 73% 29.98 in 10.0 mi West 15.0 mph - N/A   Clear
3:55 AM 17.6 °F 3.2 °F 10.4 °F 73% 29.99 in 10.0 mi West 15.0 mph - N/A   Clear
4:15 AM 17.6 °F 3.2 °F 10.4 °F 73% 30.00 in 10.0 mi West 15.0 mph - N/A   Scattered Clouds
4:35 AM 15.8 °F 1.4 °F 8.6 °F 73% 30.01 in 10.0 mi West 13.8 mph - N/A   Clear
5:15 AM 15.8 °F 1.4 °F 8.6 °F 73% 30.03 in 10.0 mi West 13.8 mph - N/A   Clear
5:35 AM 14.0 °F -0.2 °F 8.6 °F 79% 30.04 in 10.0 mi West 12.7 mph - N/A   Clear
6:15 AM 14.0 °F -0.8 °F 8.6 °F 79% 30.05 in 10.0 mi West 13.8 mph - N/A   Clear
6:35 AM 14.0 °F -0.8 °F 8.6 °F 79% 30.07 in 10.0 mi West 13.8 mph - N/A   Clear
6:55 AM 14.0 °F -0.8 °F 8.6 °F 79% 30.07 in 10.0 mi West 13.8 mph 18.4 mph N/A   Clear
7:15 AM 14.0 °F -1.4 °F 8.6 °F 79% 30.09 in 10.0 mi West 15.0 mph - N/A   Clear
7:35 AM 15.8 °F 1.4 °F 8.6 °F 73% 30.10 in 10.0 mi West 13.8 mph - N/A   Clear
7:55 AM 17.6 °F 5.7 °F 8.6 °F 68% 30.11 in 10.0 mi West 10.4 mph - N/A   Clear
8:15 AM 17.6 °F 3.2 °F 8.6 °F 68% 30.12 in 10.0 mi WNW 15.0 mph 20.7 mph N/A   Clear
8:35 AM 17.6 °F 3.2 °F 8.6 °F 68% 30.13 in 10.0 mi WNW 15.0 mph 19.6 mph N/A   Clear
8:55 AM 19.4 °F 7.2 °F 8.6 °F 63% 30.13 in 10.0 mi West 11.5 mph 20.7 mph N/A   Clear
9:15 AM 19.4 °F 5.0 °F 8.6 °F 63% 30.14 in 10.0 mi WNW 16.1 mph 19.6 mph N/A   Clear
9:55 AM 21.2 °F 8.3 °F 10.4 °F 63% 30.16 in 10.0 mi WNW 13.8 mph - N/A   Clear
10:15 AM 21.2 °F 9.5 °F 10.4 °F 63% 30.17 in 10.0 mi WNW 11.5 mph - N/A   Clear
10:35 AM 21.2 °F 9.5 °F 10.4 °F 63% 30.18 in 10.0 mi West 11.5 mph - N/A   Clear
10:55 AM 21.2 °F 8.9 °F 10.4 °F 63% 30.18 in 10.0 mi West 12.7 mph - N/A   Clear
11:15 AM 23.0 °F 10.6 °F 10.4 °F 59% 30.19 in 10.0 mi West 13.8 mph - N/A   Clear
11:35 AM 23.0 °F 11.1 °F 10.4 °F 59% 30.20 in 10.0 mi West 12.7 mph - N/A   Clear
11:55 AM 23.0 °F 12.4 °F 10.4 °F 59% 30.20 in 10.0 mi West 10.4 mph - N/A   Clear
12:35 PM 24.8 °F 14.6 °F 12.2 °F 59% 30.19 in 10.0 mi West 10.4 mph - N/A   Clear
12:55 PM 24.8 °F 14.6 °F 12.2 °F 59% 30.20 in 10.0 mi West 10.4 mph - N/A   Clear
1:15 PM 26.6 °F 18.2 °F 12.2 °F 55% 30.20 in 10.0 mi West 8.1 mph - N/A   Clear
1:35 PM 26.6 °F 15.7 °F 12.2 °F 55% 30.20 in 10.0 mi WSW 12.7 mph - N/A   Clear
1:55 PM 26.6 °F 18.2 °F 12.2 °F 55% 30.20 in 10.0 mi West 8.1 mph - N/A   Clear
2:15 PM 26.6 °F 18.2 °F 12.2 °F 55% 30.19 in 10.0 mi West 8.1 mph - N/A   Clear
2:35 PM 26.6 °F 18.2 °F 12.2 °F 55% 30.20 in 10.0 mi WSW 8.1 mph - N/A   Clear
2:55 PM 26.6 °F 19.1 °F 14.0 °F 59% 30.19 in 10.0 mi West 6.9 mph - N/A   Clear
3:15 PM 26.6 °F 18.2 °F 12.2 °F 55% 30.19 in 10.0 mi West 8.1 mph - N/A   Clear
3:35 PM 26.6 °F 19.1 °F 12.2 °F 55% 30.19 in 10.0 mi West 6.9 mph - N/A   Clear
3:55 PM 26.6 °F 22.6 °F 12.2 °F 55% 30.19 in 10.0 mi West 3.5 mph - N/A   Clear
4:15 PM 24.8 °F 15.3 °F 12.2 °F 59% 30.19 in 10.0 mi SW 9.2 mph - N/A   Clear
4:35 PM 24.8 °F 15.3 °F 12.2 °F 59% 30.20 in 10.0 mi WSW 9.2 mph - N/A   Clear
4:55 PM 23.0 °F 14.7 °F 12.2 °F 63% 30.20 in 10.0 mi SW 6.9 mph - N/A   Clear
5:55 PM 19.4 °F 11.5 °F 10.4 °F 68% 30.21 in 10.0 mi SSW 5.8 mph - N/A   Clear
6:15 PM 19.4 °F 10.4 °F 10.4 °F 68% 30.21 in 10.0 mi SSW 6.9 mph - N/A   Clear
6:35 PM 19.4 °F 9.5 °F 10.4 °F 68% 30.22 in 10.0 mi SSW 8.1 mph - N/A   Clear
6:55 PM 19.4 °F 9.5 °F 10.4 °F 68% 30.22 in 10.0 mi SSW 8.1 mph - N/A   Clear
7:15 PM 19.4 °F 14.3 °F 10.4 °F 68% 30.23 in 10.0 mi South 3.5 mph - N/A   Clear
7:35 PM 17.6 °F 9.3 °F 10.4 °F 73% 30.23 in 10.0 mi South 5.8 mph - N/A   Clear
7:55 PM 17.6 °F 7.3 °F 10.4 °F 73% 30.23 in 10.0 mi SSW 8.1 mph - N/A   Clear
8:15 PM 17.6 °F 8.2 °F 10.4 °F 73% 30.24 in 10.0 mi SSW 6.9 mph - N/A   Clear
8:35 PM 15.8 °F 6.1 °F 10.4 °F 79% 30.23 in 10.0 mi SSW 6.9 mph - N/A   Clear
8:55 PM 15.8 °F 6.1 °F 10.4 °F 79% 30.23 in 10.0 mi South 6.9 mph - N/A   Clear
9:15 PM 14.0 °F 6.5 °F 10.4 °F 86% 30.23 in 10.0 mi South 4.6 mph - N/A   Clear
9:35 PM 14.0 °F 5.1 °F 10.4 °F 86% 30.24 in 10.0 mi SSW 5.8 mph - N/A   Clear
9:55 PM 14.0 °F 3.9 °F 12.2 °F 93% 30.23 in 10.0 mi South 6.9 mph - N/A   Clear
10:15 PM 14.0 °F 2.9 °F 12.2 °F 93% 30.23 in 10.0 mi SSW 8.1 mph - N/A   Clear
10:35 PM 14.0 °F 2.9 °F 12.2 °F 93% 30.22 in 10.0 mi SSE 8.1 mph - N/A   Clear
10:55 PM 14.0 °F 2.9 °F 12.2 °F 93% 30.21 in 10.0 mi SSE 8.1 mph - N/A   Clear
11:15 PM 14.0 °F 5.1 °F 10.4 °F 86% 30.22 in 10.0 mi South 5.8 mph - N/A   Clear
11:35 PM 14.0 °F 3.9 °F 12.2 °F 93% 30.23 in 10.0 mi South 6.9 mph - N/A   Clear
11:55 PM 14.0 °F 3.9 °F 10.4 °F 86% 30.23 in 10.0 mi SSE 6.9 mph - N/A   Clear